Weather History for Shemya, AK

Change the Weather History Date:

Friday, February 14, 2014

  Actual Average Record
Temperature  
Mean Temperature 34 °F -  
Max Temperature 41 °F 33 °F 41 °F (1997)
Min Temperature 28 °F 28 °F 16 °F (1972)
Degree Days  
Heating Degree Days 30    
Moisture  
Dew Point 28 °F    
Average Humidity 81    
Maximum Humidity 100    
Minimum Humidity 52    
Precipitation  
Precipitation 0.00 in - - ()
Sea Level Pressure  
Sea Level Pressure 29.67 in    
Wind  
Wind Speed 29 mph (West)    
Max Wind Speed 39 mph    
Max Gust Speed 52 mph    
Visibility 8 miles    
Events Rain , Snow    
Averages and records for this station are not official NWS values.
T = Trace of Precipitation, MM = Missing Value Source: NWS Daily Summary

Daily Weather History Graph

Daily Weather History Graph

Search for Another Location

Airport:

Trip Planner

Search our weather history database for the weather conditions in past years. The results will help you decide how hot, cold, wet, or windy it might be!

Date:

Astronomy

Feb. 13, 2014 Rise Set
Actual Time 9:43 AM HAST 7:32 PM HAST
Civil Twilight 9:07 AM HAST 8:08 PM HAST
Nautical Twilight 8:27 AM HAST 8:48 PM HAST
Astronomical Twilight 7:47 AM HAST 9:28 PM HAST
Moon 8:02 PM HAST (2/14) 9:10 AM HAST (2/14)
Length of Visible Light 11h 00m
Length of Day
9h 49m
Full, 100% of the Moon is Illuminated
Feb 14
Full
Feb 14
Full
Feb 22
Last Quarter
Feb 28
New
Mar 8
First Quarter

Hourly Weather History & Observations

Time (HAST) Temp. Windchill Dew Point Humidity Pressure Visibility Wind Dir Wind Speed Gust Speed Precip Events Conditions
12:17 AM 39.2 °F 29.3 °F 39.2 °F 100% 29.71 in 6.0 mi SW 20.7 mph 29.9 mph N/A   Overcast
12:53 AM 37.4 °F 25.0 °F 37.4 °F 100% 29.71 in 6.2 mi West 29.9 mph 40.3 mph N/A Rain Light Rain
12:56 AM 37.0 °F 24.1 °F 37.0 °F 100% 29.72 in 8.0 mi West 32.2 mph 40.3 mph N/A Rain Light Rain
1:10 AM 37.4 °F 24.8 °F 35.6 °F 93% 29.71 in 10.0 mi West 31.1 mph 38.0 mph N/A   Overcast
1:21 AM 37.4 °F 25.6 °F 35.6 °F 93% 29.71 in 10.0 mi WSW 26.5 mph 39.1 mph N/A   Overcast
1:56 AM 36.0 °F 22.8 °F 35.1 °F 97% 29.71 in 10.0 mi West 31.1 mph 36.8 mph N/A   Overcast
2:18 AM 35.6 °F 22.3 °F 33.8 °F 93% 29.70 in 10.0 mi West 31.1 mph 36.8 mph N/A   Mostly Cloudy
2:56 AM 35.1 °F 20.8 °F 32.0 °F 89% 29.70 in 10.0 mi West 35.7 mph 41.4 mph N/A   Overcast
3:56 AM 34.0 °F 19.9 °F 32.0 °F 92% 29.71 in 10.0 mi West 32.2 mph 39.1 mph N/A Rain Light Rain
4:05 AM 35.6 °F 22.7 °F 32.0 °F 87% 29.71 in 10.0 mi West 28.8 mph 34.5 mph N/A Rain Light Rain
4:16 AM 35.6 °F 23.4 °F 33.8 °F 93% 29.71 in 10.0 mi West 25.3 mph 34.5 mph N/A   Overcast
4:56 AM 34.0 °F 20.8 °F 30.9 °F 89% 29.73 in 10.0 mi West 27.6 mph 39.1 mph N/A   Overcast
5:51 AM 35.6 °F 22.5 °F 32.0 °F 87% 29.72 in 10.0 mi West 29.9 mph 41.4 mph N/A   Overcast
5:56 AM 35.1 °F 21.6 °F 32.0 °F 89% 29.72 in 10.0 mi West 31.1 mph 40.3 mph N/A   Overcast
6:56 AM 35.1 °F 22.5 °F 26.1 °F 70% 29.72 in 10.0 mi West 26.5 mph 41.4 mph N/A   Overcast
7:56 AM 34.0 °F 19.7 °F 28.0 °F 79% 29.73 in 7.0 mi West 33.4 mph 40.3 mph N/A Rain Light Rain
8:03 AM 33.8 °F 20.1 °F 28.4 °F 81% 29.72 in 6.0 mi West 29.9 mph 35.7 mph N/A Snow Light Snow
8:13 AM 33.8 °F 20.5 °F 30.2 °F 87% 29.72 in 6.2 mi West 27.6 mph 34.5 mph N/A   Overcast
8:56 AM 34.0 °F 20.5 °F 30.0 °F 85% 29.72 in 9.0 mi West 28.8 mph 38.0 mph N/A   Overcast
9:56 AM 35.1 °F 20.4 °F 24.1 °F 64% 29.72 in 10.0 mi West 38.0 mph 41.4 mph N/A   Overcast
10:56 AM 33.1 °F 18.7 °F 27.0 °F 78% 29.73 in 10.0 mi West 32.2 mph 42.6 mph N/A   Overcast
11:56 AM 35.1 °F 20.2 °F 21.9 °F 59% 29.72 in 10.0 mi West 39.1 mph 43.7 mph N/A   Overcast
12:37 PM 33.8 °F 18.6 °F 24.8 °F 70% 29.72 in 2.5 mi West 38.0 mph 44.9 mph N/A Snow Light Snow
12:45 PM 30.2 °F 15.4 °F 26.6 °F 86% 29.72 in 1.8 mi West 28.8 mph 44.9 mph N/A Snow Light Snow
12:47 PM 32.0 °F 17.6 °F 26.6 °F 80% 29.71 in - West 29.9 mph 40.3 mph N/A Snow Light Snow
12:56 PM 34.0 °F 21.3 °F 28.0 °F 79% 29.71 in 9.0 mi West 25.3 mph 32.2 mph N/A   Overcast
1:50 PM 30.2 °F 14.1 °F 26.6 °F 86% 29.70 in 1.8 mi West 35.7 mph 51.8 mph N/A Snow Light Snow
1:53 PM 30.2 °F 15.7 °F 26.6 °F 86% 29.70 in 1.5 mi West 27.6 mph 48.3 mph N/A Snow Light Snow
1:56 PM 30.9 °F 16.2 °F 28.0 °F 89% 29.70 in 2.0 mi West 29.9 mph 41.4 mph N/A Snow Light Snow
2:04 PM 33.8 °F 19.0 °F 28.4 °F 81% 29.69 in 6.2 mi West 35.7 mph 44.9 mph N/A   Overcast
2:56 PM 34.0 °F 19.9 °F 24.1 °F 67% 29.67 in 9.0 mi West 32.2 mph 42.6 mph N/A   Mostly Cloudy
3:56 PM 33.1 °F 19.3 °F 25.0 °F 72% 29.66 in 9.0 mi West 28.8 mph 35.7 mph N/A   Overcast
4:56 PM 32.0 °F 18.4 °F 25.0 °F 75% 29.65 in 7.0 mi West 26.5 mph 43.7 mph N/A Snow Light Snow
5:29 PM 32.0 °F 16.5 °F 26.6 °F 80% 29.63 in 6.2 mi West 35.7 mph 42.6 mph N/A Snow Light Snow
5:42 PM 33.8 °F 19.4 °F 26.6 °F 75% 29.63 in 6.2 mi West 33.4 mph 40.3 mph N/A   Overcast
5:56 PM 33.1 °F 18.0 °F 23.0 °F 66% 29.64 in 10.0 mi West 35.7 mph 42.6 mph N/A   Overcast
6:28 PM 30.2 °F 14.5 °F 23.0 °F 75% 29.63 in - West 33.4 mph 47.2 mph N/A Snow Light Snow
6:30 PM 30.2 °F 15.2 °F 23.0 °F 75% 29.63 in 1.5 mi West 29.9 mph 44.9 mph N/A Snow Light Snow
6:36 PM 30.2 °F 16.5 °F 24.8 °F 80% 29.63 in 1.8 mi West 24.2 mph - N/A Snow Light Snow
6:38 PM 30.2 °F 16.8 °F 26.6 °F 86% 29.62 in - West 23.0 mph - N/A Snow Light Snow
6:45 PM 30.2 °F 17.1 °F 26.6 °F 86% 29.62 in 6.2 mi West 21.9 mph - N/A   Overcast
6:56 PM 32.0 °F 16.5 °F 26.1 °F 79% 29.62 in 10.0 mi West 35.7 mph 42.6 mph N/A   Mostly Cloudy
7:56 PM 32.0 °F 16.7 °F 21.0 °F 64% 29.61 in 9.0 mi West 34.5 mph 40.3 mph N/A   Overcast
8:56 PM 30.9 °F 15.9 °F 25.0 °F 79% 29.60 in 9.0 mi West 31.1 mph 39.1 mph N/A   Overcast
9:30 PM 28.4 °F 13.3 °F 23.0 °F 80% 29.60 in - West 27.6 mph 46.0 mph N/A Snow Light Snow
9:42 PM 30.2 °F 15.4 °F 24.8 °F 80% 29.60 in 6.2 mi West 28.8 mph 34.5 mph N/A   Overcast
9:56 PM 30.0 °F 13.6 °F 25.0 °F 82% 29.60 in 9.0 mi West 36.8 mph 40.3 mph N/A   Mostly Cloudy
10:15 PM 30.2 °F 16.8 °F 26.6 °F 86% 29.59 in 6.0 mi West 23.0 mph 31.1 mph N/A Snow Light Snow
10:35 PM 30.2 °F 14.7 °F 24.8 °F 80% 29.58 in 6.2 mi West 32.2 mph 38.0 mph N/A Snow Light Snow
10:56 PM 30.0 °F 16.3 °F 25.0 °F 82% 29.59 in 10.0 mi West 24.2 mph 34.5 mph N/A   Scattered Clouds
11:56 PM 32.0 °F 17.4 °F 23.0 °F 69% 29.57 in 10.0 mi West 31.1 mph 38.0 mph N/A   Mostly Cloudy